Location: Fort Worth, Tx
(32.7431°N, 97.3695°W)
Time: 18:34:34
(UTC-04:00)

Transit 4A - Pass Details

Date: 07 March 2024
Orbit: 871 x 972 km, 66.8° (Epoch: 21 April)

Event Time Altitude Azimuth Distance (km) Brightness Sun altitude
Rises 22:39:57 0° 178° (S) 3,615 - -39.5°
Reaches altitude 10° 22:42:47 10° 168° (SSE) 2,660 - -40.1°
Maximum altitude 22:48:09 31° 108° (ESE) 1,562 - -41.1°
Drops below altitude 10° 22:53:24 10° 48° (NE) 2,613 - -42.1°
Sets 22:56:09 0° 38° (NE) 3,541 - -42.6°
